Location: Unspecified
(51.5147°N, 7.4673°E)
Time: 07:48:07
(UTC+01:00)

Vanguard 1 Rocket - Pass Details

Date: 24 February 2026
Orbit: 653 x 4214 km, 34.3° (Epoch: 7 March)

Event Time Altitude Azimuth Distance (km) Brightness Sun altitude
Rises 15:19:01 0° 252° (WSW) 4,462 11.9 20.6°
Reaches altitude 10° 15:21:47 10° 243° (WSW) 3,842 12.1 20.3°
Maximum altitude 15:31:06 35° 182° (S) 3,388 11.2 19.3°
Drops below altitude 10° 15:47:00 10° 127° (SE) 6,542 11.7 17.5°
Sets 15:53:42 0° 120° (ESE) 8,004 12.0 16.7°
